[[{"header":{"parameterUnit":"m.s-1","parameterCategory":1,"la1":30.2991,"la2":30.254,"lo1":-89.0895,"lo2":-89.0444,"dy":0.0017,"dx":0.0017,"nx":28,"ny":28,"refTime":"2024-03-22T09:00:00:Z","depth":0,"parameterNumber":2,"parameterNumberName":"U-component_of_WINDS"},"data":[0,0,0,0,0,0,0,0,0,0,0,0,0,0,0,0,0,0,0,0,0,0,0,0,0,0,0,0,0,0,0,0,0,0,0,0,0,0,0,0,0,0,0,0,0,0,0,0,0,0,0,0,0,0,0,0,0,0,-5.6409,-5.6409,0,-5.6424,-5.6424,-5.6424,-5.6255,-5.625,-5.6245,-5.6241,-5.6255,-5.626,-5.6265,0,0,0,0,0,0,0,0,0,0,0,0,0,-5.6233,-5.6237,-5.6409,-5.6409,-5.6409,-5.6424,-5.6424,-5.6424,-5.6256,-5.625,-5.6244,-5.6239,-5.6254,-5.6259,-5.6265,0,0,0,0,0,0,0,0,0,0,0,0,0,-5.6285,-5.6238,-5.6409,-5.6327,-5.632,-5.6424,-5.6424,-5.6424,-5.6257,-5.625,-5.6243,-5.6236,-5.6252,-5.6259,-5.6266,-5.6449,0,0,-5.6288,-5.6291,0,0,0,0,0,0,0,0,-5.6282,-5.6291,-5.6339,-5.6333,-5.6325,-5.633,-5.6367,-5.6433,-5.6258,-5.6281,-5.6241,-5.6233,-5.6286,-5.629,-5.6308,-5.645,-5.645,-5.6288,-5.6292,-5.6296,-5.6298,0,0,0,0,0,0,0,-5.6279,-5.629,-5.6415,-5.634,-5.6331,-5.6289,-5.6288,-5.6379,-5.6322,-5.6278,-5.6266,-5.627,-5.6281,-5.6302,-5.6307,-5.6451,-5.6288,-5.6294,-5.6299,-5.6301,-5.6743,-5.675,0,0,0,0,0,0,-5.6286,-5.6288,-5.6414,-5.6415,-5.6286,-5.6298,-5.6297,-5.6336,-5.6321,-5.6312,-5.6276,-5.6262,-5.6293,-5.6299,-5.6307,-5.652,-5.6295,-5.6302,-5.6306,-5.6736,-5.6745,-5.6753,0,0,0,0,0,0,-5.6283,-5.6299,-5.6414,-5.6348,-5.636,-5.6308,-5.6353,-5.634,-5.636,-5.6319,-5.6308,-5.6308,-5.6288,-5.6297,-5.6415,-5.6518,-5.6305,-5.6312,-5.6727,-5.6739,-5.6749,-5.6949,0,0,0,0,0,0,-5.6279,-5.6299,-5.6368,-5.6351,-5.6364,-5.6523,-5.6359,-5.6345,-5.6373,-5.6355,-5.6346,-5.6338,-5.6283,-5.6405,-5.6422,-5.6524,-5.6317,-5.6717,-5.6732,-5.6745,-5.6933,-5.6965,-5.6993,0,0,0,0,0,-5.6273,-5.6424,-5.6373,-5.6389,-5.645,-5.6529,-5.6536,-5.647,-5.6382,-5.6451,-5.6425,-5.6338,-5.6504,-5.6419,-5.6436,-5.6542,-5.6711,-5.6728,-5.6744,-5.6919,-5.6959,-5.6993,0,0,0,0,0,0,-5.6454,-5.642,-5.6363,-5.6513,-5.6525,-5.65,-5.6585,-5.6515,-5.6552,-5.6533,-5.6449,-5.6449,-5.6581,-5.6573,-5.6478,-5.6718,-5.6592,-5.6613,-5.6719,-5.6756,-5.6786,-5.6785,-5.6323,0,0,0,0,0,-5.6512,-5.6579,-5.6546,-5.6681,-5.669,-5.6638,-5.6669,-5.6618,-5.6627,-5.6631,-5.6613,-5.6625,-5.6679,-5.6717,-5.6765,-5.6931,-5.6926,-5.7012,-5.7042,-5.7067,-5.7087,-5.7173,-5.7211,-5.6808,-5.6808,-5.6808,0,0,-5.6631,-5.6621,-5.6668,-5.6717,-5.6721,-5.6792,-5.6643,-5.6725,-5.6777,-5.6643,-5.6753,-5.6741,-5.6749,-5.6892,-5.6953,-5.6889,-5.7197,-5.7089,-5.7109,-5.7115,-5.7194,-5.7232,-5.7266,-5.682,-5.6818,-5.6816,0,0,-5.6884,-5.6884,-5.6996,-5.7003,-5.701,-5.6974,-5.7002,-5.6988,-5.6974,-5.7084,-5.6985,-5.7046,-5.7142,-5.7151,-5.7169,-5.7427,-5.7349,-5.7445,-5.7604,-5.7689,-5.7721,-5.7748,-5.784,-5.7874,-5.7465,-5.7465,-5.7465,0,-5.7031,-5.7136,-5.7063,-5.7152,-5.7176,-5.7059,-5.7172,-5.7182,-5.7205,-5.7225,-5.7152,-5.727,-5.7267,-5.741,-5.7474,-5.7492,-5.752,-5.7446,-5.7722,-5.7749,-5.7774,-5.786,-5.7895,-5.7477,-5.7475,-5.7474,-5.7473,0,-5.7316,-5.739,-5.748,-5.7506,-5.754,-5.7641,-5.7583,-5.7627,-5.7572,-5.7544,-5.7657,-5.7649,-5.7694,-5.7724,-5.7672,-5.786,-5.782,-5.7737,-5.7608,-5.7825,-5.7905,-5.7938,-5.7493,-5.7489,-5.7486,-5.7483,0,0,-5.7684,-5.7668,-5.7703,-5.7713,-5.7712,-5.7768,-5.7863,-5.7907,-5.7946,-5.7966,-5.8044,-5.8128,-5.8051,-5.8071,-5.8018,-5.8094,-5.8298,-5.8,-5.7999,-5.8056,-5.8505,-5.8568,-5.8607,-5.8247,-5.8253,-5.8257,-5.8504,0,-5.793,-5.8093,-5.8031,-5.8198,-5.8265,-5.8155,-5.8238,-5.8247,-5.8223,-5.8276,-5.8249,-5.831,-5.8204,-5.8215,-5.8285,-5.8259,-5.8387,-5.824,-5.8317,-5.8321,-5.8319,-5.8649,-5.8715,-5.8949,-5.8535,-5.854,-5.8544,0,-5.824,-5.8273,-5.8447,-5.8435,-5.8461,-5.8537,-5.8572,-5.8625,-5.8632,-5.8609,-5.8633,-5.8564,-5.8656,-5.8528,-5.8654,-5.8556,-5.8583,-5.8576,-5.8583,-5.8587,-5.8446,-5.8662,-5.9022,-5.9057,-5.8593,-5.8589,-5.8585,0,-5.849,-5.8578,-5.8693,-5.8706,-5.8695,-5.8751,-5.8749,-5.8749,-5.878,-5.8811,-5.8829,-5.8871,-5.8894,-5.8927,-5.8871,-5.8783,-5.9005,-5.8872,-5.8988,-5.899,-5.9039,-5.9037,-5.9408,-5.9059,-5.9058,-5.9058,-5.9057,0,-5.8772,-5.8882,-5.8806,-5.8877,-5.8998,-5.8925,-5.9046,-5.9032,-5.9034,-5.91,-5.9007,-5.9071,-5.8993,-5.905,-5.9007,-5.9117,-5.9128,-5.9112,-5.9099,-5.912,-5.9122,-5.9137,-5.9119,-5.9067,-5.9065,-5.9063,-5.9062,0,-5.9071,-5.9024,-5.9143,-5.9123,-5.9121,-5.9211,-5.9194,-5.9258,-5.9228,-5.9313,-5.9329,-5.9281,-5.9343,-5.9291,-5.935,-5.9321,-5.9468,-5.9432,-5.9466,-5.9456,-5.9574,-5.9564,-5.9967,-6.0016,-5.9637,-5.964,-5.9643,0,-5.9254,-5.9336,-5.9326,-5.9364,-5.9368,-5.943,-5.9461,-5.9393,-5.9428,-5.9444,-5.9507,-5.9561,-5.96,-5.9703,-5.9674,-5.9719,-5.9683,-5.9822,-5.9689,-5.9708,-5.9685,-5.968,-5.9688,-5.9849,-5.9853,-5.9857,-5.986,0,-5.9582,-5.9555,-5.9604,-5.9645,-5.9684,-5.9713,-5.9734,-5.9771,-5.97,-5.9746,-5.9808,-5.9839,-5.9899,-5.9954,-5.999,-5.9986,-5.9912,-5.9902,-5.9931,-5.9953,-5.9969,-5.9961,-5.9538,-5.9893,-5.9889,-5.9887,-5.9885,-5.9884,-5.9828,-5.9897,-5.99,-5.9957,-5.9966,-5.9989,-6.0048,-6.0026,-6.0077,-6.0122,-6.0078,-6.0154,-6.0159,-6.0199,-6.0205,-6.0263,-6.0205,-6.0247,-6.0258,-6.0269,-6.0286,-5.9961,-6.0269,-6.0268,-6.0267,-6.0266,-6.0265,0,-6.0152,-6.0149,-6.0202,-6.0235,-6.028,-6.0207,-6.0227,-6.0269,-6.0337,-6.0348,-6.0389,-6.0461,-6.0513,-6.0489,-6.0534,-6.0585,-6.0552,-6.0599,-6.0595,-6.0595,-6.0335,-6.0305,-6.0625,-6.0625,-6.0625,-6.0625,-6.0625,-6.0625,-6.0325,-6.0437,-6.0411,-6.0526,-6.0522,-6.0595,-6.0613,-6.0633,-6.0642,-6.0726,-6.0769,-6.0753,-6.075,-6.0795,-6.084,-6.0831,-6.0852,-6.0912,-6.0891,-6.0649,-6.0613,-6.0579,-6.0551,-6.0917,-6.0918,-6.1146,-6.1148,-6.1149]},{"header":{"parameterUnit":"m.s-1","parameterCategory":1,"la1":30.2991,"la2":30.254,"lo1":-89.0895,"lo2":-89.0444,"dy":0.0017,"dx":0.0017,"nx":28,"ny":28,"refTime":"2024-03-22T09:00:00:Z","depth":0,"parameterNumber":3,"parameterNumberName":"V-component_of_WINDS"},"data":[0,0,0,0,0,0,0,0,0,0,0,0,0,0,0,0,0,0,0,0,0,0,0,0,0,0,0,0,0,0,0,0,0,0,0,0,0,0,0,0,0,0,0,0,0,0,0,0,0,0,0,0,0,0,0,0,0,0,-1.6307,-1.6306,0,-1.6203,-1.6202,-1.6201,-1.6154,-1.6154,-1.6154,-1.6154,-1.604,-1.6037,-1.6034,0,0,0,0,0,0,0,0,0,0,0,0,0,-1.6457,-1.6455,-1.6307,-1.6306,-1.6305,-1.6203,-1.6202,-1.62,-1.6153,-1.6154,-1.6154,-1.6154,-1.6041,-1.6038,-1.6034,0,0,0,0,0,0,0,0,0,0,0,0,0,-1.6376,-1.6454,-1.6308,-1.6269,-1.6265,-1.6204,-1.6202,-1.62,-1.6153,-1.6154,-1.6154,-1.6154,-1.6043,-1.6038,-1.6033,-1.6,0,0,-1.6019,-1.6017,0,0,0,0,0,0,0,0,-1.6381,-1.6371,-1.6276,-1.6272,-1.6267,-1.6192,-1.6213,-1.6133,-1.6153,-1.6196,-1.6154,-1.6154,-1.609,-1.6081,-1.6061,-1.5995,-1.599,-1.6019,-1.6016,-1.6014,-1.6012,0,0,0,0,0,0,0,-1.6387,-1.6375,-1.6266,-1.6275,-1.6269,-1.6254,-1.6243,-1.6197,-1.6143,-1.6192,-1.6188,-1.6177,-1.6087,-1.6066,-1.6058,-1.5988,-1.6019,-1.6014,-1.6012,-1.601,-1.5885,-1.5884,0,0,0,0,0,0,-1.64,-1.638,-1.6269,-1.6263,-1.6326,-1.6252,-1.6239,-1.6215,-1.6143,-1.6132,-1.6177,-1.6175,-1.6074,-1.6064,-1.6054,-1.6008,-1.6014,-1.6009,-1.6007,-1.5885,-1.5885,-1.5884,0,0,0,0,0,0,-1.6403,-1.639,-1.6273,-1.632,-1.6304,-1.6249,-1.6223,-1.6213,-1.6192,-1.6132,-1.6121,-1.6166,-1.6074,-1.6061,-1.6013,-1.6003,-1.6007,-1.6003,-1.5886,-1.5885,-1.5884,-1.5917,0,0,0,0,0,0,-1.6408,-1.6392,-1.6381,-1.6321,-1.6302,-1.6237,-1.6222,-1.6211,-1.6185,-1.6181,-1.6118,-1.6108,-1.6073,-1.6021,-1.6009,-1.5997,-1.5999,-1.5886,-1.5886,-1.5885,-1.5916,-1.5917,-1.5918,0,0,0,0,0,-1.6413,-1.6394,-1.6381,-1.6368,-1.6288,-1.6237,-1.6226,-1.6188,-1.6184,-1.6171,-1.6132,-1.611,-1.6007,-1.6016,-1.6002,-1.5989,-1.5887,-1.5886,-1.5885,-1.5916,-1.5917,-1.5918,0,0,0,0,0,0,-1.6452,-1.6385,-1.637,-1.6331,-1.629,-1.6229,-1.6212,-1.6191,-1.6149,-1.6147,-1.6099,-1.6086,-1.6042,-1.601,-1.6023,-1.5951,-1.5944,-1.5941,-1.5973,-1.5973,-1.5974,-1.5982,-1.5995,0,0,0,0,0,-1.6457,-1.6424,-1.6366,-1.6337,-1.6317,-1.6268,-1.6245,-1.6219,-1.6174,-1.6156,-1.6113,-1.6068,-1.6025,-1.5998,-1.5955,-1.5912,-1.5895,-1.5895,-1.5896,-1.5897,-1.5893,-1.5864,-1.5862,-1.5881,-1.5881,-1.5881,0,0,-1.6465,-1.6424,-1.6406,-1.6344,-1.6309,-1.6273,-1.6254,-1.6217,-1.6189,-1.6149,-1.6102,-1.6069,-1.6015,-1.5969,-1.5946,-1.5942,-1.5885,-1.5895,-1.5897,-1.5893,-1.5863,-1.5861,-1.586,-1.588,-1.588,-1.588,0,0,-1.6462,-1.6429,-1.64,-1.6365,-1.6314,-1.6281,-1.6274,-1.6215,-1.6192,-1.6144,-1.6113,-1.6077,-1.6005,-1.5966,-1.5938,-1.5916,-1.5893,-1.5904,-1.5907,-1.5879,-1.5878,-1.5876,-1.5866,-1.5863,-1.5901,-1.5901,-1.5901,0,-1.6478,-1.6425,-1.6387,-1.6351,-1.6323,-1.6287,-1.6254,-1.6222,-1.6158,-1.6138,-1.6134,-1.604,-1.6002,-1.5944,-1.5939,-1.5918,-1.5905,-1.591,-1.5882,-1.588,-1.5878,-1.5867,-1.5863,-1.5902,-1.5902,-1.5902,-1.5902,0,-1.6446,-1.6409,-1.6391,-1.6332,-1.6301,-1.6268,-1.6221,-1.6194,-1.617,-1.6137,-1.6086,-1.6038,-1.5983,-1.5968,-1.5944,-1.5906,-1.5904,-1.5892,-1.5884,-1.5878,-1.5867,-1.5863,-1.5904,-1.5904,-1.5903,-1.5903,0,0,-1.6466,-1.6384,-1.6378,-1.6349,-1.6288,-1.6257,-1.622,-1.6168,-1.6145,-1.6101,-1.6066,-1.6004,-1.5991,-1.5959,-1.5929,-1.5905,-1.5887,-1.5895,-1.5893,-1.5893,-1.5838,-1.5846,-1.5843,-1.5872,-1.5871,-1.587,-1.5841,0,-1.6452,-1.6387,-1.635,-1.6298,-1.6262,-1.6225,-1.6192,-1.6149,-1.6116,-1.6077,-1.6039,-1.5995,-1.5983,-1.5962,-1.5937,-1.5895,-1.5875,-1.5897,-1.5835,-1.5834,-1.5849,-1.5837,-1.5847,-1.5822,-1.5837,-1.5836,-1.5836,0,-1.6428,-1.6386,-1.6332,-1.6272,-1.6255,-1.6226,-1.6174,-1.6139,-1.6087,-1.6064,-1.6026,-1.5997,-1.5952,-1.5949,-1.5884,-1.5899,-1.5872,-1.5847,-1.5845,-1.5836,-1.5834,-1.5826,-1.5814,-1.5809,-1.5829,-1.583,-1.583,0,-1.6445,-1.6375,-1.6332,-1.6308,-1.6238,-1.6218,-1.6187,-1.6137,-1.6107,-1.606,-1.6039,-1.5987,-1.5958,-1.5917,-1.5872,-1.5874,-1.581,-1.5804,-1.5787,-1.5788,-1.5774,-1.5775,-1.5755,-1.576,-1.576,-1.576,-1.576,0,-1.6433,-1.64,-1.6338,-1.6312,-1.6272,-1.6228,-1.619,-1.6155,-1.611,-1.6073,-1.6038,-1.6004,-1.5948,-1.5906,-1.587,-1.582,-1.5807,-1.5785,-1.5775,-1.5787,-1.579,-1.5767,-1.5767,-1.5759,-1.5759,-1.5759,-1.576,0,-1.6445,-1.6403,-1.6353,-1.6291,-1.6274,-1.6247,-1.6192,-1.6162,-1.6127,-1.6081,-1.6067,-1.601,-1.5958,-1.5909,-1.584,-1.5816,-1.5764,-1.5753,-1.5782,-1.5776,-1.5761,-1.5762,-1.5724,-1.5715,-1.5728,-1.5728,-1.5728,0,-1.644,-1.6414,-1.6348,-1.6322,-1.6292,-1.6251,-1.622,-1.6174,-1.6143,-1.608,-1.6058,-1.6004,-1.5958,-1.5875,-1.5825,-1.5771,-1.5757,-1.5747,-1.5748,-1.5759,-1.5753,-1.5755,-1.575,-1.5747,-1.5748,-1.5748,-1.5748,0,-1.6434,-1.6413,-1.6372,-1.6322,-1.6286,-1.6244,-1.6201,-1.618,-1.6125,-1.6091,-1.6038,-1.6003,-1.5931,-1.5876,-1.5815,-1.578,-1.5753,-1.5748,-1.574,-1.5751,-1.5768,-1.5755,-1.5781,-1.5749,-1.5749,-1.5748,-1.5748,-1.5748,-1.6435,-1.6409,-1.6358,-1.6312,-1.6274,-1.6233,-1.6202,-1.6162,-1.6118,-1.6058,-1.6032,-1.5978,-1.5922,-1.5838,-1.5802,-1.5756,-1.5751,-1.5741,-1.5738,-1.5736,-1.5736,-1.5777,-1.5745,-1.5745,-1.5745,-1.5745,-1.5745,0,-1.6425,-1.639,-1.6348,-1.6288,-1.6251,-1.6231,-1.6181,-1.6149,-1.6103,-1.6055,-1.601,-1.5947,-1.5892,-1.5837,-1.5779,-1.5752,-1.5738,-1.5738,-1.5739,-1.573,-1.5746,-1.5757,-1.575,-1.575,-1.575,-1.575,-1.575,-1.575,-1.6416,-1.637,-1.6343,-1.6275,-1.6239,-1.6188,-1.616,-1.612,-1.6081,-1.6013,-1.5969,-1.5934,-1.5881,-1.5818,-1.5766,-1.575,-1.5729,-1.5732,-1.5713,-1.5729,-1.5729,-1.5729,-1.5739,-1.5729,-1.5729,-1.57,-1.57,-1.57]}]]